Location: Binningen
(47.7924°N, 8.7261°E)
Time: 09:01:18
(UTC+00:00)

Sich 1 Rocket - Pass Details

Date: 17 May 2021
Orbit: 616 x 653 km, 82.5° (Epoch: 15 June)

Event Time Altitude Azimuth Distance (km) Brightness Sun altitude
Rises 23:31:48 0° 343° (NNW) 2,968 8.3 -22.6°
Reaches altitude 10° 23:34:11 10° 336° (NNW) 2,048 7.1 -22.6°
Maximum altitude 23:38:21 37° 269° (W) 995 4.5 -22.5°
Enters shadow 23:38:43 36° 257° (WSW) 1,006 4.4 -22.5°
